Flag for U.S.A. Weather past 2 weeks in San Diego, California, U.S.A.

Now
66 °F

Partly sunny.


Feels Like: 66 °F
Forecast: 66 / 70 °F
Wind: 6 mph from Northwest

Location: San Diego - North Island

Current Time: Jul 4, 2015 at 9:39:33 PM

Latest Report: Jul 4, 2015 at 8:52 PM


Visibility: 10 mi

Pressure: 29.92 "Hg

Humidity: 81%

Dew point: 60 °F

Location of San DiegoLocation

Historic Weather in San Diego — Graph

°F

San Diego temperature yesterday

Maximum temperature yesterday: 73 °F (at 1:52 PM)
Minimum temperature yesterday: 66 °F (at 7:52 PM)
Average temperature yesterday: 69 °F

Past Weeks' High & Low Weather Summary

 TemperatureHumidityPressure
High79 °F (Jun 30, 4:52 PM)97% (Jun 30, 9:52 PM)30.01 "Hg (Jun 30, 9:52 PM)
Low62 °F (Jun 23, 3:52 AM)64% (Jun 23, 2:52 PM)29.79 "Hg (Jun 30, 5:52 PM)
Average68 °F82%29.90 "Hg
* Reported Jun 19 7:52 PM — Jul 4 7:52 PM, San Diego, Weather by CustomWeather, © 2015

Note: Actual official high and low records may vary slightly from our data, if they occured in-between our weather recording intervals... More about our weather records

Advertising

San Diego weather history for previous 24 hours

 ConditionsComfort  
Time TempWeatherWind HumidityBarometerVisibility
7:52 PM
Sat, Jul 4
66 °FPartly sunny.7 mph78%29.90 "Hg10 mi
6:52 PM67 °FPartly sunny.12 mph79%29.88 "Hg10 mi
5:52 PM67 °FPartly sunny.10 mph81%29.87 "Hg10 mi
4:52 PM69 °FPartly sunny.12 mph73%29.88 "Hg10 mi
3:52 PM70 °FScattered clouds.12 mph71%29.89 "Hg10 mi
2:52 PM71 °FScattered clouds.13 mph68%29.90 "Hg10 mi
1:52 PM71 °FPartly sunny.12 mph68%29.90 "Hg10 mi
12:52 PM70 °FPartly sunny.10 mph71%29.91 "Hg10 mi
11:52 AM70 °FOvercast.9 mph71%29.91 "Hg10 mi
10:52 AM67 °FOvercast.10 mph79%29.91 "Hg10 mi
9:52 AM67 °FOvercast.9 mph79%29.90 "Hg10 mi
8:52 AM66 °FOvercast.8 mph81%29.90 "Hg10 mi
7:52 AM66 °FOvercast.8 mph84%29.89 "Hg10 mi
6:52 AM66 °FOvercast.9 mph81%29.87 "Hg10 mi
5:52 AM67 °FOvercast.5 mph79%29.87 "Hg10 mi
4:52 AM67 °FOvercast.9 mph79%29.86 "Hg10 mi
3:52 AM67 °FOvercast.6 mph81%29.86 "Hg10 mi
2:52 AM67 °FOvercast.8 mph81%29.87 "Hg10 mi
1:52 AM67 °FOvercast.No wind81%29.88 "Hg10 mi
12:52 AM66 °FOvercast.No wind84%29.88 "Hg10 mi
11:52 PM
Fri, Jul 3
66 °FPassing clouds.5 mph84%29.89 "Hg10 mi
10:52 PM67 °FPassing clouds.3 mph85%29.90 "Hg10 mi
9:52 PM67 °FOvercast.7 mph85%29.90 "Hg10 mi
Weather by CustomWeather, © 2015

See weather overviewHow to use our weather pages